Regional Weather Roundup
Issued by NWS Jackson, KY

Home | Current Version | Previous Version | Graphics & Text | Print | Product List | Glossary On
Versions: 1 2 3 4 5 6 7 8 9 10 11 12 13 14 15 16 17 18 19 20 21 22 23 24 25 26 27 28 29 30 31 32 33 34 35 36 37 38 39 40 41 42 43 44 45 46 47 48 49 50
244
ASUS43 KJKL 210910
RWRJKL

EAST KENTUCKY HOURLY WEATHER ROUNDUP
NATIONAL WEATHER SERVICE JACKSON KY
500 AM EDT THU SEP 21 2017

NOTE: "FAIR" INDICATES FEW OR NO CLOUDS BELOW 12,000 FEET WITH
NO SIGNIFICANT WEATHER AND/OR OBSTRUCTIONS TO VISIBILITY.

* THESE REPORTS ARE NOT UNDER NWS QUALITY CONTROL AND MAY NOT
  REPORT WEATHER SUCH AS PRECIPITATION AND FOG.

KYZ079-080-083-085-087-088-110-112-115-119-120-211000
...EASTERN KENTUCKY...

CITY           SKY/WX    TMP DP  RH WIND       PRES   REMARKS
JACKSON        CLEAR     68  65  90 CALM      30.10S
LONDON         PTCLDY    65  63  93 CALM      30.09S FOG
SOMERSET*      FOG       63  63 100 CALM      30.10R VSB 1/2
MONTICELLO*    FOG       62  62 100 CALM      30.10R VSB 1/4
WILLIAMSBURG*  CLOUDY    64  64 100 CALM      30.09S VSB<1/4
MIDDLESBORO*   FOG       64  64 100 CALM      30.12R VSB 3/4
HARLAN APT*    CLOUDY    63  61  94 CALM      30.13S VSB 3/4
PIKE CO APT*     N/A     64  64 100 S3        30.11S
BIG SANDY APT* MOSUNNY   65  65 100 CALM      30.10R FOG
MOREHEAD APT*  SUNNY     66  66 100 CALM      30.10S
$$

KYZ035-036-041-042-044-050-067-078-099-211000
...CENTRAL KENTUCKY...

CITY           SKY/WX    TMP DP  RH WIND       PRES   REMARKS
MT STERLING*   CLEAR     63  63 100 CALM      30.10R
FLEMING/MASON* FOG       64  64 100 SE3       30.09S VSB 1/4
LEXINGTON      CLEAR     66  63  90 SE3       30.08S FOG
FRANKFORT      FOG       65  63  93 CALM      30.06R VSB 3/4
LOUISVILLE     PTCLDY    73  70  90 E5        30.03F
LEBANON*         N/A     68  64  88 CALM      30.07S
GLASGOW*       CLEAR    N/A N/A N/A CALM      30.06R HAZE
BOWLING GREEN  CLEAR     68  67  96 CALM      30.05R
$$

KYZ091>093-OHZ055-061-077-WVZ005-015-034-035-042-211000
...SOUTHERN OHIO/WEST VIRGINIA...

CITY           SKY/WX    TMP DP  RH WIND       PRES   REMARKS
COVINGTON      PTCLDY    68  68 100 CALM      30.06S
COLUMBUS       CLEAR     66  65  96 CALM      30.08R
DAYTON         CLEAR     68  66  93 CALM      30.08S FOG
WILMINGTON     CLEAR     65  65 100 CALM      30.08R FOG
HUNTINGTON     CLEAR     66  64  93 CALM      30.07F FOG
CHARLESTON     FOG       63  62  97 CALM      30.09R VSB 1/2
PINEVILLE*     CLOUDY    60  59  96 MISG      30.18S
BECKLEY        FOG       57  56  96 CALM      30.16R VSB 1/2
BLUEFIELD      MOCLDY    60  58  92 W5        30.17R
LOGAN CO APT*  FOG       64  64 100 CALM      30.11S VSB<1/4
$$

VAZ002-007-008-TNZ017-027-036-066-071-211000
...SOUTHWEST VIRGINIA/EAST TENNESSEE...

CITY           SKY/WX    TMP DP  RH WIND       PRES   REMARKS
WISE*          CLEAR     64  64 100 CALM      30.18R
JONESVILLE*    PTSUNNY   59  59 100 CALM      30.14R
ABINGDON*      CLEAR     61  60  99 E5        30.14S
BRISTOL        PTCLDY    58  58 100 CALM      30.11R FOG
MORRISTOWN*    SUNNY     64  64 100 CALM      30.09R
SEVIERVILLE*   SUNNY     63  61  94 CALM      30.08R
KNOXVILLE      PTCLDY    66  64  93 CALM      30.07R
LAFOLLETTE*    FOG       63  63 100 CALM      30.12S VSB 1/4
OAK RIDGE      CLEAR     65  63  93 CALM      30.09R
CROSSVILLE     CLEAR     62  61  96 CALM      30.12R FOG
NASHVILLE      CLEAR     71  68  90 NE5       30.06R
$$

...KEY TO REMARKS...
VSB - VISIBILITY IN MILES
WCI - WIND CHILL INDEX
HX  - HEAT INDEX

$$




USA.gov is the U.S. government's official web portal to all federal, state and local government web resources and services.